Time,TemperatureF,DewpointF,PressureIn,WindDirection,WindDirectionDegrees,WindSpeedMPH,WindSpeedGustMPH,Humidity,HourlyPrecipIn,Conditions,Clouds,dailyrainin,SoftwareType,DateUTC
2013-05-07 00:04:00,63.0,54.0,30.12,SSE,157,4.0,8.0,71,0.00,,,0.00,TxWx,2013-05-07 04:04:00,
2013-05-07 00:09:00,63.0,54.0,30.13,SSE,157,5.0,6.0,72,0.00,,,0.00,TxWx,2013-05-07 04:09:00,
2013-05-07 00:14:00,63.0,54.0,30.13,SSE,157,3.0,5.0,73,0.00,,,0.00,TxWx,2013-05-07 04:14:00,
2013-05-07 00:19:00,63.0,54.0,30.13,SSE,157,7.0,7.0,73,0.00,,,0.00,TxWx,2013-05-07 04:19:00,
2013-05-07 00:24:00,63.0,54.0,30.13,SSE,157,4.0,5.0,74,0.00,,,0.00,TxWx,2013-05-07 04:24:00,
2013-05-07 00:30:00,63.0,55.0,30.13,SSE,157,8.0,10.0,74,0.00,,,0.00,TxWx,2013-05-07 04:30:00,
2013-05-07 00:35:00,62.0,54.0,30.13,SE,135,6.0,6.0,75,0.00,,,0.00,TxWx,2013-05-07 04:35:00,
2013-05-07 00:40:00,62.0,54.0,30.13,SE,135,4.0,7.0,75,0.00,,,0.00,TxWx,2013-05-07 04:40:00,
2013-05-07 00:45:00,62.0,54.0,30.13,SE,135,6.0,8.0,76,0.00,,,0.00,TxWx,2013-05-07 04:45:00,
2013-05-07 00:50:00,62.0,54.0,30.13,SSE,157,3.0,3.0,76,0.00,,,0.00,TxWx,2013-05-07 04:50:00,
2013-05-07 00:55:00,62.0,54.0,30.13,SSE,157,4.0,5.0,76,0.00,,,0.00,TxWx,2013-05-07 04:55:00,
2013-05-07 01:00:00,62.0,55.0,30.13,ESE,112,5.0,7.0,77,0.00,,,0.00,TxWx,2013-05-07 05:00:00,
2013-05-07 01:05:00,61.0,54.0,30.12,ESE,112,2.0,4.0,77,0.00,,,0.00,TxWx,2013-05-07 05:05:00,
2013-05-07 01:10:00,61.0,54.0,30.13,SSE,157,6.0,6.0,77,0.00,,,0.00,TxWx,2013-05-07 05:10:00,
2013-05-07 01:15:00,61.0,54.0,30.13,SE,135,0.0,1.0,78,0.00,,,0.00,TxWx,2013-05-07 05:15:00,
2013-05-07 01:20:00,61.0,54.0,30.12,SSE,157,5.0,6.0,78,0.00,,,0.00,TxWx,2013-05-07 05:20:00,
2013-05-07 01:25:00,61.0,54.0,30.12,SSE,157,3.0,3.0,79,0.00,,,0.00,TxWx,2013-05-07 05:25:00,
2013-05-07 01:38:00,60.0,53.0,30.12,SSE,157,3.0,3.0,79,0.00,,,0.00,TxWx,2013-05-07 05:38:00,
2013-05-07 01:43:00,60.0,54.0,30.12,SE,135,5.0,5.0,80,0.00,,,0.00,TxWx,2013-05-07 05:43:00,
2013-05-07 01:48:00,60.0,54.0,30.12,South,180,3.0,4.0,80,0.00,,,0.00,TxWx,2013-05-07 05:48:00,
2013-05-07 01:53:00,60.0,54.0,30.12,East,90,3.0,3.0,81,0.00,,,0.00,TxWx,2013-05-07 05:53:00,
2013-05-07 01:58:00,60.0,54.0,30.12,SE,135,3.0,3.0,81,0.00,,,0.00,TxWx,2013-05-07 05:58:00,
2013-05-07 02:08:00,60.0,54.0,30.12,SSE,157,3.0,3.0,82,0.00,,,0.00,TxWx,2013-05-07 06:08:00,
2013-05-07 02:13:00,60.0,54.0,30.12,ESE,112,3.0,3.0,82,0.00,,,0.00,TxWx,2013-05-07 06:13:00,
2013-05-07 02:19:00,59.0,53.0,30.12,SE,135,0.0,0.0,82,0.00,,,0.00,TxWx,2013-05-07 06:19:00,
2013-05-07 02:24:00,59.0,54.0,30.12,SE,135,1.0,1.0,83,0.00,,,0.00,TxWx,2013-05-07 06:24:00,
2013-05-07 02:29:00,59.0,54.0,30.12,SSE,157,0.0,0.0,83,0.00,,,0.00,TxWx,2013-05-07 06:29:00,
2013-05-07 02:34:00,59.0,54.0,30.12,SSE,157,0.0,0.0,83,0.00,,,0.00,TxWx,2013-05-07 06:34:00,
2013-05-07 02:39:00,59.0,54.0,30.12,SSE,157,1.0,2.0,83,0.00,,,0.00,TxWx,2013-05-07 06:39:00,
2013-05-07 02:44:00,59.0,54.0,30.13,South,180,0.0,1.0,84,0.00,,,0.00,TxWx,2013-05-07 06:44:00,
2013-05-07 02:50:00,59.0,54.0,30.12,SE,135,0.0,0.0,84,0.00,,,0.00,TxWx,2013-05-07 06:50:00,
2013-05-07 02:55:00,58.0,53.0,30.12,ESE,112,0.0,1.0,84,0.00,,,0.00,TxWx,2013-05-07 06:55:00,
2013-05-07 03:00:00,58.0,53.0,30.12,SSE,157,1.0,1.0,85,0.00,,,0.00,TxWx,2013-05-07 07:00:00,
2013-05-07 03:05:00,58.0,53.0,30.12,SSE,157,0.0,0.0,85,0.00,,,0.00,TxWx,2013-05-07 07:05:00,
2013-05-07 03:10:00,58.0,54.0,30.12,SSE,157,0.0,0.0,85,0.00,,,0.00,TxWx,2013-05-07 07:10:00,
2013-05-07 03:15:00,58.0,54.0,30.12,SSE,157,0.0,1.0,86,0.00,,,0.00,TxWx,2013-05-07 07:15:00,
2013-05-07 03:20:00,58.0,54.0,30.12,SSE,157,0.0,1.0,86,0.00,,,0.00,TxWx,2013-05-07 07:20:00,
2013-05-07 03:25:00,58.0,54.0,30.12,ESE,112,0.0,1.0,86,0.00,,,0.00,TxWx,2013-05-07 07:25:00,
2013-05-07 03:30:00,58.0,54.0,30.12,ESE,112,0.0,0.0,86,0.00,,,0.00,TxWx,2013-05-07 07:30:00,
2013-05-07 03:35:00,57.0,53.0,30.12,ESE,112,0.0,0.0,86,0.00,,,0.00,TxWx,2013-05-07 07:35:00,
2013-05-07 03:40:00,57.0,53.0,30.12,ESE,112,0.0,0.0,87,0.00,,,0.00,TxWx,2013-05-07 07:40:00,
2013-05-07 03:45:00,57.0,53.0,30.12,East,90,0.0,0.0,87,0.00,,,0.00,TxWx,2013-05-07 07:45:00,
2013-05-07 03:50:00,56.0,52.0,30.12,ESE,112,0.0,0.0,87,0.00,,,0.00,TxWx,2013-05-07 07:50:00,
2013-05-07 03:55:00,56.0,52.0,30.12,ESE,112,0.0,0.0,88,0.00,,,0.00,TxWx,2013-05-07 07:55:00,
2013-05-07 04:01:00,56.0,52.0,30.12,ESE,112,0.0,0.0,88,0.00,,,0.00,TxWx,2013-05-07 08:01:00,
2013-05-07 04:06:00,56.0,52.0,30.13,ESE,112,0.0,0.0,88,0.00,,,0.00,TxWx,2013-05-07 08:06:00,
2013-05-07 04:11:00,56.0,53.0,30.13,ESE,112,0.0,1.0,89,0.00,,,0.00,TxWx,2013-05-07 08:11:00,
2013-05-07 04:16:00,56.0,53.0,30.13,SW,225,0.0,0.0,89,0.00,,,0.00,TxWx,2013-05-07 08:16:00,
2013-05-07 04:21:00,56.0,53.0,30.13,SW,225,0.0,0.0,90,0.00,,,0.00,TxWx,2013-05-07 08:21:00,
2013-05-07 04:26:00,56.0,53.0,30.13,SW,225,0.0,0.0,90,0.00,,,0.00,TxWx,2013-05-07 08:26:00,
2013-05-07 04:31:00,56.0,53.0,30.13,SW,225,0.0,0.0,91,0.00,,,0.00,TxWx,2013-05-07 08:31:00,
2013-05-07 04:36:00,55.0,52.0,30.14,SW,225,0.0,1.0,91,0.00,,,0.00,TxWx,2013-05-07 08:36:00,
2013-05-07 04:41:00,55.0,52.0,30.13,SE,135,0.0,0.0,91,0.00,,,0.00,TxWx,2013-05-07 08:41:00,
2013-05-07 04:46:00,55.0,53.0,30.14,ESE,112,0.0,0.0,92,0.00,,,0.00,TxWx,2013-05-07 08:46:00,
2013-05-07 04:51:00,55.0,53.0,30.14,ESE,112,0.0,0.0,92,0.00,,,0.00,TxWx,2013-05-07 08:51:00,
2013-05-07 04:56:00,55.0,53.0,30.14,ESE,112,0.0,0.0,92,0.00,,,0.00,TxWx,2013-05-07 08:56:00,
2013-05-07 05:01:00,55.0,53.0,30.14,ESE,112,0.0,0.0,92,0.00,,,0.00,TxWx,2013-05-07 09:01:00,
2013-05-07 05:06:00,54.0,52.0,30.14,ESE,112,0.0,0.0,93,0.00,,,0.00,TxWx,2013-05-07 09:06:00,
2013-05-07 05:11:00,54.0,52.0,30.14,ESE,112,0.0,1.0,93,0.00,,,0.00,TxWx,2013-05-07 09:11:00,
2013-05-07 05:17:00,54.0,52.0,30.14,SE,135,0.0,0.0,93,0.00,,,0.00,TxWx,2013-05-07 09:17:00,
2013-05-07 05:22:00,54.0,52.0,30.14,SE,135,0.0,0.0,94,0.00,,,0.00,TxWx,2013-05-07 09:22:00,
2013-05-07 05:27:00,54.0,52.0,30.14,SE,135,0.0,0.0,94,0.00,,,0.00,TxWx,2013-05-07 09:27:00,
2013-05-07 05:32:00,54.0,52.0,30.14,SE,135,0.0,0.0,94,0.00,,,0.00,TxWx,2013-05-07 09:32:00,
2013-05-07 05:37:00,54.0,52.0,30.14,ENE,67,0.0,0.0,94,0.00,,,0.00,TxWx,2013-05-07 09:37:00,
2013-05-07 05:42:00,54.0,52.0,30.14,ENE,67,0.0,0.0,95,0.00,,,0.00,TxWx,2013-05-07 09:42:00,
2013-05-07 05:47:00,54.0,52.0,30.15,ENE,67,0.0,0.0,95,0.00,,,0.00,TxWx,2013-05-07 09:47:00,
2013-05-07 05:52:00,54.0,52.0,30.15,ENE,67,0.0,0.0,95,0.00,,,0.00,TxWx,2013-05-07 09:52:00,
2013-05-07 05:57:00,53.0,52.0,30.15,ENE,67,0.0,1.0,95,0.00,,,0.00,TxWx,2013-05-07 09:57:00,
2013-05-07 06:02:00,53.0,52.0,30.15,ENE,67,0.0,0.0,95,0.00,,,0.00,TxWx,2013-05-07 10:02:00,
2013-05-07 06:07:00,53.0,52.0,30.15,ENE,67,0.0,0.0,96,0.00,,,0.00,TxWx,2013-05-07 10:07:00,
2013-05-07 06:12:00,53.0,52.0,30.15,ENE,67,0.0,0.0,96,0.00,,,0.00,TxWx,2013-05-07 10:12:00,
2013-05-07 06:17:00,54.0,53.0,30.15,ENE,67,0.0,0.0,96,0.00,,,0.00,TxWx,2013-05-07 10:17:00,
2013-05-07 06:22:00,54.0,53.0,30.15,ENE,67,0.0,0.0,96,0.00,,,0.00,TxWx,2013-05-07 10:22:00,
2013-05-07 06:28:00,54.0,53.0,30.15,ENE,67,0.0,0.0,96,0.00,,,0.00,TxWx,2013-05-07 10:28:00,
2013-05-07 06:33:00,55.0,54.0,30.15,ENE,67,0.0,0.0,96,0.00,,,0.00,TxWx,2013-05-07 10:33:00,
2013-05-07 06:38:00,55.0,54.0,30.15,ENE,67,0.0,1.0,96,0.00,,,0.00,TxWx,2013-05-07 10:38:00,
2013-05-07 06:43:00,55.0,54.0,30.15,ENE,67,0.0,0.0,96,0.00,,,0.00,TxWx,2013-05-07 10:43:00,
2013-05-07 06:48:00,56.0,55.0,30.15,ENE,67,0.0,0.0,97,0.00,,,0.00,TxWx,2013-05-07 10:48:00,
2013-05-07 06:53:00,56.0,55.0,30.15,ENE,67,0.0,0.0,96,0.00,,,0.00,TxWx,2013-05-07 10:53:00,
2013-05-07 06:59:00,56.0,55.0,30.16,East,90,0.0,0.0,96,0.00,,,0.00,TxWx,2013-05-07 10:59:00,
2013-05-07 07:04:00,57.0,56.0,30.16,East,90,0.0,0.0,96,0.00,,,0.00,TxWx,2013-05-07 11:04:00,
2013-05-07 07:09:00,58.0,57.0,30.16,East,90,0.0,0.0,96,0.00,,,0.00,TxWx,2013-05-07 11:09:00,
2013-05-07 07:14:00,58.0,57.0,30.16,ESE,112,0.0,0.0,95,0.00,,,0.00,TxWx,2013-05-07 11:14:00,
2013-05-07 07:20:00,57.0,55.0,30.16,SSE,157,0.0,0.0,95,0.00,,,0.00,TxWx,2013-05-07 11:20:00,
2013-05-07 07:25:00,58.0,56.0,30.16,SSW,202,1.0,1.0,94,0.00,,,0.00,TxWx,2013-05-07 11:25:00,
2013-05-07 07:30:00,58.0,56.0,30.16,SSE,157,1.0,1.0,93,0.00,,,0.00,TxWx,2013-05-07 11:30:00,
2013-05-07 07:35:00,58.0,56.0,30.16,South,180,3.0,3.0,92,0.00,,,0.00,TxWx,2013-05-07 11:35:00,
2013-05-07 07:40:00,58.0,55.0,30.16,ESE,112,3.0,4.0,91,0.00,,,0.00,TxWx,2013-05-07 11:40:00,
2013-05-07 07:45:00,59.0,56.0,30.15,ESE,112,3.0,3.0,90,0.00,,,0.00,TxWx,2013-05-07 11:45:00,
2013-05-07 07:50:00,59.0,55.0,30.16,SE,135,3.0,4.0,88,0.00,,,0.00,TxWx,2013-05-07 11:50:00,
2013-05-07 07:55:00,60.0,56.0,30.16,South,180,4.0,4.0,87,0.00,,,0.00,TxWx,2013-05-07 11:55:00,
2013-05-07 08:00:00,60.0,56.0,30.16,South,180,5.0,5.0,86,0.00,,,0.00,TxWx,2013-05-07 12:00:00,
2013-05-07 08:05:00,60.0,55.0,30.16,SSE,157,3.0,3.0,84,0.00,,,0.00,TxWx,2013-05-07 12:05:00,
2013-05-07 08:10:00,60.0,55.0,30.16,South,180,4.0,5.0,83,0.00,,,0.00,TxWx,2013-05-07 12:10:00,
2013-05-07 08:15:00,60.0,55.0,30.16,East,90,3.0,3.0,83,0.00,,,0.00,TxWx,2013-05-07 12:15:00,
2013-05-07 08:20:00,61.0,55.0,30.16,South,180,5.0,5.0,82,0.00,,,0.00,TxWx,2013-05-07 12:20:00,
2013-05-07 08:26:00,61.0,55.0,30.16,South,180,5.0,5.0,81,0.00,,,0.00,TxWx,2013-05-07 12:26:00,
2013-05-07 08:31:00,61.0,55.0,30.16,South,180,3.0,3.0,81,0.00,,,0.00,TxWx,2013-05-07 12:31:00,
2013-05-07 08:36:00,61.0,55.0,30.16,South,180,3.0,4.0,80,0.00,,,0.00,TxWx,2013-05-07 12:36:00,
2013-05-07 08:41:00,61.0,54.0,30.16,South,180,4.0,5.0,79,0.00,,,0.00,TxWx,2013-05-07 12:41:00,
2013-05-07 08:46:00,62.0,55.0,30.16,SSE,157,3.0,3.0,79,0.00,,,0.00,TxWx,2013-05-07 12:46:00,
2013-05-07 08:51:00,62.0,55.0,30.16,SSE,157,3.0,3.0,78,0.00,,,0.00,TxWx,2013-05-07 12:51:00,
2013-05-07 08:56:00,63.0,55.0,30.16,SE,135,5.0,5.0,77,0.00,,,0.00,TxWx,2013-05-07 12:56:00,
2013-05-07 09:01:00,63.0,55.0,30.16,South,180,5.0,7.0,76,0.00,,,0.00,TxWx,2013-05-07 13:01:00,
2013-05-07 09:06:00,63.0,55.0,30.16,South,180,7.0,7.0,75,0.00,,,0.00,TxWx,2013-05-07 13:06:00,
2013-05-07 09:11:00,63.0,55.0,30.16,SSE,157,5.0,5.0,75,0.00,,,0.00,TxWx,2013-05-07 13:11:00,
2013-05-07 09:16:00,64.0,56.0,30.16,SW,225,4.0,5.0,74,0.00,,,0.00,TxWx,2013-05-07 13:16:00,
2013-05-07 09:21:00,64.0,56.0,30.16,SSE,157,3.0,5.0,74,0.00,,,0.00,TxWx,2013-05-07 13:21:00,
2013-05-07 09:27:00,64.0,55.0,30.16,SSE,157,2.0,3.0,74,0.00,,,0.00,TxWx,2013-05-07 13:27:00,
2013-05-07 09:32:00,64.0,55.0,30.16,SSE,157,4.0,4.0,74,0.00,,,0.00,TxWx,2013-05-07 13:32:00,
2013-05-07 09:37:00,64.0,55.0,30.16,South,180,3.0,3.0,73,0.00,,,0.00,TxWx,2013-05-07 13:37:00,
2013-05-07 09:42:00,65.0,56.0,30.15,SE,135,4.0,4.0,73,0.00,,,0.00,TxWx,2013-05-07 13:42:00,
2013-05-07 09:47:00,66.0,56.0,30.15,ESE,112,1.0,3.0,71,0.00,,,0.00,TxWx,2013-05-07 13:47:00,
2013-05-07 09:52:00,66.0,56.0,30.15,East,90,3.0,6.0,70,0.00,,,0.00,TxWx,2013-05-07 13:52:00,
2013-05-07 09:57:00,66.0,56.0,30.15,ENE,67,3.0,3.0,70,0.00,,,0.00,TxWx,2013-05-07 13:57:00,
2013-05-07 10:02:00,67.0,56.0,30.15,NE,45,1.0,1.0,69,0.00,,,0.00,TxWx,2013-05-07 14:02:00,
2013-05-07 10:07:00,68.0,57.0,30.14,SW,225,1.0,1.0,67,0.00,,,0.00,TxWx,2013-05-07 14:07:00,
2013-05-07 10:12:00,68.0,56.0,30.14,NNE,22,3.0,4.0,66,0.00,,,0.00,TxWx,2013-05-07 14:12:00,
2013-05-07 10:17:00,69.0,57.0,30.14,East,90,3.0,3.0,65,0.00,,,0.00,TxWx,2013-05-07 14:17:00,
2013-05-07 10:22:00,70.0,57.0,30.14,ESE,112,1.0,2.0,64,0.00,,,0.00,TxWx,2013-05-07 14:22:00,
2013-05-07 10:28:00,70.0,57.0,30.14,SSE,157,3.0,3.0,63,0.00,,,0.00,TxWx,2013-05-07 14:28:00,
2013-05-07 10:33:00,70.0,56.0,30.14,East,90,0.0,1.0,61,0.00,,,0.00,TxWx,2013-05-07 14:33:00,
2013-05-07 10:38:00,71.0,56.0,30.14,South,180,3.0,3.0,60,0.00,,,0.00,TxWx,2013-05-07 14:38:00,
2013-05-07 10:43:00,70.0,55.0,30.14,SSW,202,3.0,4.0,60,0.00,,,0.00,TxWx,2013-05-07 14:43:00,
2013-05-07 10:48:00,71.0,56.0,30.14,West,270,0.0,1.0,60,0.00,,,0.00,TxWx,2013-05-07 14:48:00,
2013-05-07 10:53:00,71.0,56.0,30.14,ESE,112,0.0,1.0,59,0.00,,,0.00,TxWx,2013-05-07 14:53:00,
2013-05-07 10:58:00,71.0,55.0,30.14,ESE,112,4.0,5.0,57,0.00,,,0.00,TxWx,2013-05-07 14:58:00,
2013-05-07 11:03:00,71.0,55.0,30.14,SSW,202,3.0,4.0,57,0.00,,,0.00,TxWx,2013-05-07 15:03:00,
2013-05-07 11:08:00,71.0,54.0,30.14,East,90,3.0,4.0,56,0.00,,,0.00,TxWx,2013-05-07 15:08:00,
2013-05-07 11:13:00,72.0,55.0,30.14,ESE,112,3.0,5.0,56,0.00,,,0.00,TxWx,2013-05-07 15:13:00,
2013-05-07 11:18:00,72.0,55.0,30.13,West,270,3.0,4.0,55,0.00,,,0.00,TxWx,2013-05-07 15:18:00,
2013-05-07 11:23:00,73.0,56.0,30.13,SSE,157,2.0,3.0,55,0.00,,,0.00,TxWx,2013-05-07 15:23:00,
2013-05-07 11:29:00,73.0,55.0,30.13,WNW,292,5.0,5.0,54,0.00,,,0.00,TxWx,2013-05-07 15:29:00,
2013-05-07 11:34:00,74.0,56.0,30.13,SSE,157,3.0,4.0,54,0.00,,,0.00,TxWx,2013-05-07 15:34:00,
2013-05-07 11:39:00,74.0,55.0,30.13,East,90,3.0,3.0,53,0.00,,,0.00,TxWx,2013-05-07 15:39:00,
2013-05-07 11:44:00,74.0,55.0,30.12,NNE,22,3.0,4.0,53,0.00,,,0.00,TxWx,2013-05-07 15:44:00,
2013-05-07 11:49:00,74.0,55.0,30.12,NE,45,0.0,1.0,52,0.00,,,0.00,TxWx,2013-05-07 15:49:00,
2013-05-07 11:54:00,75.0,55.0,30.11,WSW,247,5.0,5.0,51,0.00,,,0.00,TxWx,2013-05-07 15:54:00,
2013-05-07 11:59:00,75.0,56.0,30.11,NE,45,3.0,5.0,51,0.00,,,0.00,TxWx,2013-05-07 15:59:00,
2013-05-07 12:04:00,75.0,55.0,30.11,NNE,22,2.0,3.0,51,0.00,,,0.00,TxWx,2013-05-07 16:04:00,
2013-05-07 12:09:00,76.0,55.0,30.11,NNW,337,8.0,8.0,48,0.00,,,0.00,TxWx,2013-05-07 16:09:00,
2013-05-07 12:14:00,75.0,54.0,30.11,NE,45,2.0,2.0,49,0.00,,,0.00,TxWx,2013-05-07 16:14:00,
2013-05-07 12:19:00,76.0,56.0,30.11,ESE,112,0.0,0.0,50,0.00,,,0.00,TxWx,2013-05-07 16:19:00,
2013-05-07 12:25:00,76.0,55.0,30.11,South,180,4.0,4.0,49,0.00,,,0.00,TxWx,2013-05-07 16:25:00,
2013-05-07 12:30:00,76.0,55.0,30.10,East,90,5.0,5.0,49,0.00,,,0.00,TxWx,2013-05-07 16:30:00,
2013-05-07 12:35:00,76.0,55.0,30.10,SE,135,5.0,6.0,49,0.00,,,0.00,TxWx,2013-05-07 16:35:00,
2013-05-07 12:40:00,76.0,55.0,30.10,SSW,202,4.0,6.0,48,0.00,,,0.00,TxWx,2013-05-07 16:40:00,
2013-05-07 12:45:00,76.0,55.0,30.10,East,90,3.0,5.0,49,0.00,,,0.00,TxWx,2013-05-07 16:45:00,
2013-05-07 12:50:00,76.0,55.0,30.09,ENE,67,6.0,6.0,48,0.00,,,0.00,TxWx,2013-05-07 16:50:00,
2013-05-07 12:55:00,76.0,55.0,30.09,ESE,112,2.0,3.0,48,0.00,,,0.00,TxWx,2013-05-07 16:55:00,
2013-05-07 13:00:00,76.0,54.0,30.09,East,90,4.0,5.0,47,0.00,,,0.00,TxWx,2013-05-07 17:00:00,
2013-05-07 13:05:00,77.0,55.0,30.09,ENE,67,3.0,4.0,47,0.00,,,0.00,TxWx,2013-05-07 17:05:00,
2013-05-07 13:10:00,77.0,55.0,30.09,East,90,3.0,3.0,47,0.00,,,0.00,TxWx,2013-05-07 17:10:00,
2013-05-07 13:15:00,77.0,55.0,30.09,SSE,157,4.0,5.0,46,0.00,,,0.00,TxWx,2013-05-07 17:15:00,
2013-05-07 13:20:00,78.0,55.0,30.09,SW,225,5.0,5.0,46,0.00,,,0.00,TxWx,2013-05-07 17:20:00,
2013-05-07 13:26:00,78.0,56.0,30.08,SSW,202,3.0,4.0,47,0.00,,,0.00,TxWx,2013-05-07 17:26:00,
2013-05-07 13:31:00,77.0,55.0,30.08,SSE,157,8.0,9.0,46,0.00,,,0.00,TxWx,2013-05-07 17:31:00,
2013-05-07 13:36:00,78.0,55.0,30.08,ESE,112,7.0,8.0,45,0.00,,,0.00,TxWx,2013-05-07 17:36:00,
2013-05-07 13:41:00,78.0,55.0,30.08,ENE,67,2.0,3.0,46,0.00,,,0.00,TxWx,2013-05-07 17:41:00,
2013-05-07 13:46:00,78.0,55.0,30.08,SE,135,3.0,5.0,45,0.00,,,0.00,TxWx,2013-05-07 17:46:00,
2013-05-07 13:51:00,78.0,54.0,30.07,ESE,112,3.0,6.0,44,0.00,,,0.00,TxWx,2013-05-07 17:51:00,
2013-05-07 13:56:00,78.0,55.0,30.08,South,180,8.0,9.0,45,0.00,,,0.00,TxWx,2013-05-07 17:56:00,
2013-05-07 14:01:00,78.0,55.0,30.07,SE,135,5.0,6.0,45,0.00,,,0.00,TxWx,2013-05-07 18:01:00,
2013-05-07 14:06:00,78.0,55.0,30.07,ESE,112,3.0,5.0,45,0.00,,,0.00,TxWx,2013-05-07 18:06:00,
2013-05-07 14:11:00,78.0,54.0,30.07,South,180,11.0,13.0,44,0.00,,,0.00,TxWx,2013-05-07 18:11:00,
2013-05-07 14:16:00,79.0,55.0,30.06,ESE,112,2.0,3.0,44,0.00,,,0.00,TxWx,2013-05-07 18:16:00,
2013-05-07 14:21:00,80.0,55.0,30.06,ESE,112,1.0,3.0,43,0.00,,,0.00,TxWx,2013-05-07 18:21:00,
2013-05-07 14:27:00,80.0,54.0,30.06,SE,135,8.0,10.0,41,0.00,,,0.00,TxWx,2013-05-07 18:27:00,
2013-05-07 14:32:00,79.0,54.0,30.06,SSW,202,7.0,7.0,42,0.00,,,0.00,TxWx,2013-05-07 18:32:00,
2013-05-07 14:37:00,79.0,54.0,30.05,West,270,6.0,6.0,42,0.00,,,0.00,TxWx,2013-05-07 18:37:00,
2013-05-07 14:42:00,79.0,53.0,30.05,SSW,202,7.0,8.0,41,0.00,,,0.00,TxWx,2013-05-07 18:42:00,
2013-05-07 14:47:00,79.0,54.0,30.05,SE,135,6.0,6.0,42,0.00,,,0.00,TxWx,2013-05-07 18:47:00,
2013-05-07 14:52:00,79.0,53.0,30.04,SE,135,3.0,4.0,41,0.00,,,0.00,TxWx,2013-05-07 18:52:00,
2013-05-07 14:57:00,80.0,53.0,30.05,South,180,8.0,8.0,40,0.00,,,0.00,TxWx,2013-05-07 18:57:00,
2013-05-07 15:01:00,68.0,58.0,30.12,SSE,157,2.0,3.0,72,0.00,,,0.00,TxWx,2013-05-07 19:01:00,
2013-05-07 15:02:00,80.0,53.0,30.04,SSE,157,3.0,6.0,40,0.00,,,0.00,TxWx,2013-05-07 19:02:00,
2013-05-07 15:03:00,68.0,58.0,30.12,ESE,112,0.0,3.0,72,0.00,,,0.00,TxWx,2013-05-07 19:03:00,
2013-05-07 15:04:00,68.0,58.0,30.12,SE,135,1.0,3.0,72,0.00,,,0.00,TxWx,2013-05-07 19:04:00,
2013-05-07 15:07:00,80.0,53.0,30.04,SSE,157,3.0,5.0,40,0.00,,,0.00,TxWx,2013-05-07 19:07:00,
2013-05-07 15:12:00,80.0,53.0,30.04,ESE,112,4.0,7.0,39,0.00,,,0.00,TxWx,2013-05-07 19:12:00,
2013-05-07 15:17:00,80.0,53.0,30.04,SE,135,6.0,6.0,40,0.00,,,0.00,TxWx,2013-05-07 19:17:00,
2013-05-07 15:22:00,80.0,53.0,30.03,East,90,9.0,9.0,39,0.00,,,0.00,TxWx,2013-05-07 19:22:00,
2013-05-07 15:28:00,80.0,53.0,30.04,SSE,157,4.0,4.0,39,0.00,,,0.00,TxWx,2013-05-07 19:28:00,
2013-05-07 15:29:00,67.0,58.0,30.12,SE,135,2.0,3.0,74,0.00,,,0.00,TxWx,2013-05-07 19:29:00,
2013-05-07 15:30:00,67.0,58.0,30.12,East,90,1.0,3.0,74,0.00,,,0.00,TxWx,2013-05-07 19:30:00,
2013-05-07 15:31:00,67.0,58.0,30.12,SE,135,3.0,3.0,74,0.00,,,0.00,TxWx,2013-05-07 19:31:00,
2013-05-07 15:32:00,67.0,58.0,30.12,SE,135,4.0,5.0,74,0.00,,,0.00,TxWx,2013-05-07 19:32:00,
2013-05-07 15:33:00,80.0,53.0,30.03,South,180,8.0,10.0,39,0.00,,,0.00,TxWx,2013-05-07 19:33:00,
2013-05-07 15:38:00,80.0,53.0,30.03,SSE,157,9.0,10.0,40,0.00,,,0.00,TxWx,2013-05-07 19:38:00,
2013-05-07 15:43:00,80.0,53.0,30.03,South,180,9.0,9.0,40,0.00,,,0.00,TxWx,2013-05-07 19:43:00,
2013-05-07 15:48:00,80.0,53.0,30.03,South,180,9.0,10.0,39,0.00,,,0.00,TxWx,2013-05-07 19:48:00,
2013-05-07 15:53:00,80.0,53.0,30.03,SE,135,6.0,6.0,40,0.00,,,0.00,TxWx,2013-05-07 19:53:00,
2013-05-07 15:58:00,80.0,52.0,30.03,ESE,112,8.0,9.0,39,0.00,,,0.00,TxWx,2013-05-07 19:58:00,
2013-05-07 16:03:00,81.0,53.0,30.03,SSW,202,8.0,9.0,39,0.00,,,0.00,TxWx,2013-05-07 20:03:00,
2013-05-07 16:08:00,81.0,53.0,30.03,SSW,202,8.0,10.0,38,0.00,,,0.00,TxWx,2013-05-07 20:08:00,
2013-05-07 16:13:00,80.0,52.0,30.03,SSE,157,6.0,6.0,38,0.00,,,0.00,TxWx,2013-05-07 20:13:00,
2013-05-07 16:18:00,80.0,52.0,30.02,SSE,157,5.0,6.0,38,0.00,,,0.00,TxWx,2013-05-07 20:18:00,
2013-05-07 16:23:00,81.0,53.0,30.02,SSE,157,5.0,6.0,38,0.00,,,0.00,TxWx,2013-05-07 20:23:00,
2013-05-07 16:29:00,81.0,52.0,30.02,South,180,7.0,7.0,37,0.00,,,0.00,TxWx,2013-05-07 20:29:00,
2013-05-07 16:34:00,81.0,51.0,30.02,South,180,9.0,9.0,36,0.00,,,0.00,TxWx,2013-05-07 20:34:00,
2013-05-07 16:39:00,80.0,51.0,30.02,SE,135,5.0,7.0,36,0.00,,,0.00,TxWx,2013-05-07 20:39:00,
2013-05-07 16:44:00,81.0,51.0,30.02,SSE,157,8.0,10.0,36,0.00,,,0.00,TxWx,2013-05-07 20:44:00,
2013-05-07 16:49:00,81.0,51.0,30.02,SW,225,7.0,7.0,36,0.00,,,0.00,TxWx,2013-05-07 20:49:00,
2013-05-07 16:54:00,81.0,52.0,30.02,South,180,4.0,5.0,37,0.00,,,0.00,TxWx,2013-05-07 20:54:00,
2013-05-07 16:59:00,81.0,51.0,30.02,SSW,202,1.0,2.0,36,0.00,,,0.00,TxWx,2013-05-07 20:59:00,
2013-05-07 17:04:00,81.0,51.0,30.02,SE,135,6.0,6.0,36,0.00,,,0.00,TxWx,2013-05-07 21:04:00,
2013-05-07 17:07:00,64.0,58.0,30.09,East,90,0.0,0.0,82,0.00,,,0.00,TxWx,2013-05-07 21:07:00,
2013-05-07 17:08:00,64.0,58.0,30.10,East,90,0.0,0.0,82,0.00,,,0.00,TxWx,2013-05-07 21:08:00,
2013-05-07 17:09:00,81.0,51.0,30.02,SSW,202,8.0,8.0,36,0.00,,,0.00,TxWx,2013-05-07 21:09:00,
2013-05-07 17:10:00,64.0,58.0,30.09,East,90,0.0,0.0,82,0.00,,,0.00,TxWx,2013-05-07 21:10:00,
2013-05-07 17:11:00,63.0,57.0,30.09,East,90,2.0,3.0,82,0.00,,,0.00,TxWx,2013-05-07 21:11:00,
2013-05-07 17:12:00,63.0,57.0,30.09,East,90,1.0,2.0,82,0.00,,,0.00,TxWx,2013-05-07 21:12:00,
2013-05-07 17:14:00,81.0,51.0,30.02,SSE,157,6.0,10.0,36,0.00,,,0.00,TxWx,2013-05-07 21:14:00,
2013-05-07 17:15:00,63.0,57.0,30.09,East,90,0.0,0.0,82,0.00,,,0.00,TxWx,2013-05-07 21:15:00,
2013-05-07 17:16:00,63.0,58.0,30.09,East,90,0.0,1.0,83,0.00,,,0.00,TxWx,2013-05-07 21:16:00,
2013-05-07 17:17:00,63.0,58.0,30.09,East,90,0.0,0.0,83,0.00,,,0.00,TxWx,2013-05-07 21:17:00,
2013-05-07 17:18:00,63.0,58.0,30.09,East,90,0.0,0.0,83,0.00,,,0.00,TxWx,2013-05-07 21:18:00,
2013-05-07 17:19:00,63.0,58.0,30.09,East,90,0.0,0.0,83,0.00,,,0.00,TxWx,2013-05-07 21:19:00,
2013-05-07 17:20:00,81.0,51.0,30.02,South,180,10.0,14.0,36,0.00,,,0.00,TxWx,2013-05-07 21:20:00,
2013-05-07 17:22:00,63.0,58.0,30.09,East,90,0.0,1.0,84,0.00,,,0.00,TxWx,2013-05-07 21:22:00,
2013-05-07 17:25:00,81.0,51.0,30.02,SSE,157,6.0,8.0,36,0.00,,,0.00,TxWx,2013-05-07 21:25:00,
2013-05-07 17:26:00,63.0,58.0,30.09,East,90,0.0,0.0,85,0.00,,,0.00,TxWx,2013-05-07 21:26:00,
2013-05-07 17:27:00,63.0,58.0,30.09,East,90,0.0,0.0,85,0.00,,,0.00,TxWx,2013-05-07 21:27:00,
2013-05-07 17:30:00,81.0,51.0,30.01,SE,135,8.0,8.0,36,0.00,,,0.00,TxWx,2013-05-07 21:30:00,
2013-05-07 17:35:00,81.0,51.0,30.02,SE,135,10.0,11.0,36,0.00,,,0.00,TxWx,2013-05-07 21:35:00,
2013-05-07 17:40:00,81.0,51.0,30.02,SSE,157,5.0,6.0,36,0.00,,,0.00,TxWx,2013-05-07 21:40:00,
2013-05-07 17:45:00,81.0,51.0,30.01,South,180,3.0,3.0,36,0.00,,,0.00,TxWx,2013-05-07 21:45:00,
2013-05-07 17:46:00,62.0,58.0,30.09,East,90,0.0,0.0,87,0.00,,,0.00,TxWx,2013-05-07 21:46:00,
2013-05-07 17:47:00,62.0,58.0,30.09,East,90,0.0,0.0,87,0.00,,,0.00,TxWx,2013-05-07 21:47:00,
2013-05-07 17:48:00,62.0,58.0,30.09,East,90,0.0,0.0,87,0.00,,,0.00,TxWx,2013-05-07 21:48:00,
2013-05-07 17:49:00,62.0,58.0,30.09,East,90,0.0,0.0,87,0.00,,,0.00,TxWx,2013-05-07 21:49:00,
2013-05-07 17:50:00,81.0,51.0,30.01,South,180,6.0,8.0,36,0.00,,,0.00,TxWx,2013-05-07 21:50:00,
2013-05-07 17:54:00,62.0,58.0,30.09,East,90,0.0,0.0,87,0.00,,,0.00,TxWx,2013-05-07 21:54:00,
2013-05-07 17:55:00,81.0,51.0,30.02,SSE,157,9.0,10.0,35,0.00,,,0.00,TxWx,2013-05-07 21:55:00,
2013-05-07 18:00:00,80.0,50.0,30.01,ESE,112,3.0,8.0,35,0.00,,,0.00,TxWx,2013-05-07 22:00:00,
2013-05-07 18:05:00,80.0,50.0,30.01,SSE,157,6.0,8.0,36,0.00,,,0.00,TxWx,2013-05-07 22:05:00,
2013-05-07 18:10:00,80.0,50.0,30.01,SSW,202,6.0,6.0,36,0.00,,,0.00,TxWx,2013-05-07 22:10:00,
2013-05-07 18:15:00,80.0,50.0,30.01,South,180,6.0,7.0,36,0.00,,,0.00,TxWx,2013-05-07 22:15:00,
2013-05-07 18:21:00,80.0,51.0,30.01,ESE,112,2.0,3.0,36,0.00,,,0.00,TxWx,2013-05-07 22:21:00,
2013-05-07 18:26:00,80.0,51.0,30.01,SSE,157,8.0,9.0,36,0.00,,,0.00,TxWx,2013-05-07 22:26:00,
2013-05-07 18:31:00,80.0,51.0,30.01,SSE,157,6.0,8.0,36,0.00,,,0.00,TxWx,2013-05-07 22:31:00,
2013-05-07 18:36:00,80.0,51.0,30.01,South,180,6.0,6.0,37,0.00,,,0.00,TxWx,2013-05-07 22:36:00,
2013-05-07 18:41:00,80.0,51.0,30.01,South,180,5.0,5.0,37,0.00,,,0.00,TxWx,2013-05-07 22:41:00,
2013-05-07 18:46:00,80.0,51.0,30.01,SE,135,5.0,6.0,36,0.00,,,0.00,TxWx,2013-05-07 22:46:00,
2013-05-07 18:51:00,80.0,51.0,30.02,SSE,157,3.0,3.0,37,0.00,,,0.00,TxWx,2013-05-07 22:51:00,
2013-05-07 18:52:00,61.0,58.0,30.10,East,90,0.0,0.0,89,0.00,,,0.00,TxWx,2013-05-07 22:52:00,
2013-05-07 18:56:00,80.0,51.0,30.02,South,180,4.0,4.0,37,0.00,,,0.00,TxWx,2013-05-07 22:56:00,
2013-05-07 19:01:00,80.0,51.0,30.02,ESE,112,1.0,4.0,37,0.00,,,0.00,TxWx,2013-05-07 23:01:00,
2013-05-07 19:06:00,80.0,51.0,30.02,South,180,7.0,9.0,37,0.00,,,0.00,TxWx,2013-05-07 23:06:00,
2013-05-07 19:11:00,80.0,52.0,30.02,SSE,157,3.0,4.0,38,0.00,,,0.00,TxWx,2013-05-07 23:11:00,
2013-05-07 19:16:00,80.0,52.0,30.02,SSE,157,8.0,11.0,38,0.00,,,0.00,TxWx,2013-05-07 23:16:00,
2013-05-07 19:21:00,79.0,51.0,30.02,SE,135,4.0,4.0,39,0.00,,,0.00,TxWx,2013-05-07 23:21:00,
2013-05-07 19:26:00,79.0,51.0,30.03,South,180,8.0,8.0,39,0.00,,,0.00,TxWx,2013-05-07 23:26:00,
2013-05-07 19:32:00,79.0,51.0,30.03,SSW,202,5.0,5.0,39,0.00,,,0.00,TxWx,2013-05-07 23:32:00,
2013-05-07 19:37:00,79.0,51.0,30.03,SSW,202,5.0,6.0,39,0.00,,,0.00,TxWx,2013-05-07 23:37:00,
2013-05-07 19:42:00,78.0,51.0,30.03,South,180,3.0,3.0,39,0.00,,,0.00,TxWx,2013-05-07 23:42:00,
2013-05-07 19:47:00,78.0,51.0,30.03,ESE,112,2.0,3.0,40,0.00,,,0.00,TxWx,2013-05-07 23:47:00,
2013-05-07 19:52:00,78.0,52.0,30.03,South,180,3.0,3.0,40,0.00,,,0.00,TxWx,2013-05-07 23:52:00,
2013-05-07 19:57:00,78.0,52.0,30.04,SSE,157,2.0,3.0,41,0.00,,,0.00,TxWx,2013-05-07 23:57:00,
2013-05-07 20:02:00,78.0,52.0,30.04,SE,135,3.0,3.0,41,0.00,,,0.00,TxWx,2013-05-08 00:02:00,
2013-05-07 20:07:00,77.0,52.0,30.04,SSE,157,3.0,5.0,42,0.00,,,0.00,TxWx,2013-05-08 00:07:00,
2013-05-07 20:12:00,77.0,52.0,30.05,SSE,157,2.0,3.0,42,0.00,,,0.00,TxWx,2013-05-08 00:12:00,
2013-05-07 20:17:00,76.0,52.0,30.05,ESE,112,5.0,6.0,43,0.00,,,0.00,TxWx,2013-05-08 00:17:00,
2013-05-07 20:22:00,76.0,52.0,30.05,SE,135,5.0,6.0,43,0.00,,,0.00,TxWx,2013-05-08 00:22:00,
2013-05-07 20:27:00,76.0,52.0,30.06,SSE,157,5.0,6.0,44,0.00,,,0.00,TxWx,2013-05-08 00:27:00,
2013-05-07 20:33:00,75.0,52.0,30.06,SSE,157,2.0,3.0,45,0.00,,,0.00,TxWx,2013-05-08 00:33:00,
2013-05-07 20:38:00,75.0,52.0,30.06,SSE,157,3.0,5.0,45,0.00,,,0.00,TxWx,2013-05-08 00:38:00,
2013-05-07 20:43:00,75.0,52.0,30.07,SE,135,5.0,5.0,46,0.00,,,0.00,TxWx,2013-05-08 00:43:00,
2013-05-07 20:48:00,75.0,53.0,30.07,SSE,157,6.0,6.0,46,0.00,,,0.00,TxWx,2013-05-08 00:48:00,
2013-05-07 20:53:00,75.0,53.0,30.07,ESE,112,4.0,5.0,47,0.00,,,0.00,TxWx,2013-05-08 00:53:00,
2013-05-07 20:58:00,74.0,53.0,30.08,SE,135,5.0,7.0,48,0.00,,,0.00,TxWx,2013-05-08 00:58:00,
2013-05-07 21:03:00,74.0,54.0,30.08,SSE,157,4.0,5.0,50,0.00,,,0.00,TxWx,2013-05-08 01:03:00,
2013-05-07 21:08:00,74.0,55.0,30.08,SE,135,1.0,5.0,51,0.00,,,0.00,TxWx,2013-05-08 01:08:00,
2013-05-07 21:13:00,74.0,55.0,30.08,ESE,112,3.0,5.0,53,0.00,,,0.00,TxWx,2013-05-08 01:13:00,
2013-05-07 21:18:00,73.0,55.0,30.08,ESE,112,5.0,6.0,54,0.00,,,0.00,TxWx,2013-05-08 01:18:00,
2013-05-07 21:23:00,73.0,56.0,30.09,SSE,157,3.0,6.0,55,0.00,,,0.00,TxWx,2013-05-08 01:23:00,
2013-05-07 21:28:00,73.0,56.0,30.09,ESE,112,5.0,5.0,56,0.00,,,0.00,TxWx,2013-05-08 01:28:00,
2013-05-07 21:33:00,73.0,56.0,30.09,SE,135,3.0,6.0,56,0.00,,,0.00,TxWx,2013-05-08 01:33:00,
2013-05-07 21:39:00,73.0,57.0,30.09,ESE,112,10.0,10.0,58,0.00,,,0.00,TxWx,2013-05-08 01:39:00,
2013-05-07 21:44:00,72.0,56.0,30.09,South,180,6.0,7.0,58,0.00,,,0.00,TxWx,2013-05-08 01:44:00,
2013-05-07 21:49:00,72.0,57.0,30.09,SE,135,3.0,5.0,59,0.00,,,0.00,TxWx,2013-05-08 01:49:00,
2013-05-07 21:54:00,72.0,57.0,30.10,South,180,3.0,3.0,59,0.00,,,0.00,TxWx,2013-05-08 01:54:00,
2013-05-07 21:59:00,72.0,57.0,30.10,ESE,112,0.0,1.0,60,0.00,,,0.00,TxWx,2013-05-08 01:59:00,
2013-05-07 22:04:00,72.0,57.0,30.10,SSE,157,3.0,3.0,60,0.00,,,0.00,TxWx,2013-05-08 02:04:00,
2013-05-07 22:09:00,72.0,58.0,30.10,South,180,3.0,5.0,61,0.00,,,0.00,TxWx,2013-05-08 02:09:00,
2013-05-07 22:14:00,72.0,58.0,30.10,ESE,112,4.0,4.0,61,0.00,,,0.00,TxWx,2013-05-08 02:14:00,
2013-05-07 22:19:00,71.0,57.0,30.10,SSE,157,3.0,3.0,61,0.00,,,0.00,TxWx,2013-05-08 02:19:00,
2013-05-07 22:24:00,71.0,57.0,30.10,ESE,112,0.0,1.0,62,0.00,,,0.00,TxWx,2013-05-08 02:24:00,
2013-05-07 22:29:00,71.0,57.0,30.10,South,180,3.0,4.0,62,0.00,,,0.00,TxWx,2013-05-08 02:29:00,
2013-05-07 22:34:00,71.0,58.0,30.10,ESE,112,8.0,8.0,63,0.00,,,0.00,TxWx,2013-05-08 02:34:00,
2013-05-07 22:39:00,70.0,57.0,30.10,SSE,157,3.0,4.0,64,0.00,,,0.00,TxWx,2013-05-08 02:39:00,
2013-05-07 22:45:00,70.0,57.0,30.10,SSE,157,4.0,5.0,64,0.00,,,0.00,TxWx,2013-05-08 02:45:00,
2013-05-07 22:50:00,70.0,57.0,30.11,SE,135,3.0,5.0,65,0.00,,,0.00,TxWx,2013-05-08 02:50:00,
2013-05-07 22:55:00,70.0,58.0,30.11,SSE,157,8.0,8.0,65,0.00,,,0.00,TxWx,2013-05-08 02:55:00,
2013-05-07 23:00:00,70.0,58.0,30.11,SE,135,6.0,7.0,66,0.00,,,0.00,TxWx,2013-05-08 03:00:00,
2013-05-07 23:05:00,70.0,58.0,30.11,South,180,5.0,5.0,66,0.00,,,0.00,TxWx,2013-05-08 03:05:00,
2013-05-07 23:10:00,69.0,57.0,30.11,SE,135,3.0,4.0,67,0.00,,,0.00,TxWx,2013-05-08 03:10:00,
2013-05-07 23:15:00,69.0,58.0,30.11,SE,135,6.0,7.0,68,0.00,,,0.00,TxWx,2013-05-08 03:15:00,
2013-05-07 23:20:00,69.0,58.0,30.11,SE,135,7.0,8.0,68,0.00,,,0.00,TxWx,2013-05-08 03:20:00,
2013-05-07 23:25:00,69.0,58.0,30.11,East,90,4.0,6.0,69,0.00,,,0.00,TxWx,2013-05-08 03:25:00,
2013-05-07 23:30:00,69.0,58.0,30.11,South,180,6.0,6.0,69,0.00,,,0.00,TxWx,2013-05-08 03:30:00,
2013-05-07 23:35:00,69.0,58.0,30.11,East,90,2.0,3.0,69,0.00,,,0.00,TxWx,2013-05-08 03:35:00,
2013-05-07 23:40:00,68.0,58.0,30.11,SE,135,6.0,6.0,70,0.00,,,0.00,TxWx,2013-05-08 03:40:00,
2013-05-07 23:45:00,68.0,58.0,30.11,ESE,112,2.0,2.0,70,0.00,,,0.00,TxWx,2013-05-08 03:45:00,
2013-05-07 23:50:00,68.0,58.0,30.11,SSE,157,5.0,5.0,70,0.00,,,0.00,TxWx,2013-05-08 03:50:00,
2013-05-07 23:56:00,68.0,58.0,30.11,ESE,112,3.0,5.0,71,0.00,,,0.00,TxWx,2013-05-08 03:56:00,